Home   Weather   Poland   Rzeszów   Past weeks
Flag for Poland

Past Weather in Rzeszów, Poland — Yesterday and Last 2 Weeks

Currently: 45 °F. Sunny. (Weather station: Rzeszow-Jasionka, Poland). See more current weather

Past Weather in Rzeszów — Graph

°F

Rzeszów Temperature Yesterday

Maximum temperature yesterday: 68 °F (at 2:30 pm)
Minimum temperature yesterday: 52 °F (at 11:00 pm)
Average temperature yesterday: 59 °F

High & Low Weather Summary for the Past Weeks

 TemperatureHumidityPressure
High77 °F (Sep 16, 2:00 pm)100% (Sep 13, 6:00 am)30.24 "Hg (Sep 13, 6:00 am)
Low37 °F (Sep 21, 2:00 am)50% (Sep 15, 2:30 pm)29.65 "Hg (Sep 24, 4:30 am)
Average56 °F85%30.01 "Hg
* Reported Sep 13 6:00 am — Sep 28 6:00 am, Rzeszów. Weather by CustomWeather, © 2021

Note: Actual official high and low records may vary slightly from our data, if they occured in-between our weather recording intervals... More about our weather records

Rzeszów Weather History for the Previous 24 Hours

Scroll right to see more
 ConditionsComfort  
Time TempWeatherWind HumidityBarometerVisibility
6:00 am
Tue, Sep 28
45 °FClear.8 mph93%30.12 "Hg10 mi
5:30 am46 °FClear.7 mph87%30.12 "Hg10 mi
5:00 am46 °FClear.8 mph87%30.12 "Hg10 mi
4:30 am46 °FClear.8 mph87%30.12 "Hg10 mi
4:00 am46 °FClear.7 mph87%30.12 "Hg10 mi
3:30 am48 °FClear.9 mph87%30.12 "Hg10 mi
3:00 am48 °FClear.8 mph87%30.12 "Hg10 mi
2:30 am48 °FClear.9 mph87%30.12 "Hg10 mi
2:00 am50 °FClear.12 mph82%30.12 "Hg10 mi
1:30 am50 °FClear.9 mph82%30.12 "Hg10 mi
1:00 am50 °FClear.12 mph88%30.12 "Hg10 mi
12:30 am50 °FClear.13 mph88%30.12 "Hg10 mi
12:00 am52 °FClear.12 mph82%30.12 "Hg10 mi
11:30 pm
Mon, Sep 27
52 °FClear.12 mph82%30.12 "Hg10 mi
11:00 pm52 °FClear.12 mph82%30.12 "Hg10 mi
10:30 pm54 °FClear.13 mph82%30.12 "Hg10 mi
10:00 pm54 °FClear.10 mph82%30.12 "Hg10 mi
9:30 pm54 °FClear.10 mph82%30.12 "Hg10 mi
9:00 pm55 °FClear.9 mph77%30.12 "Hg10 mi
8:30 pm55 °FClear.13 mph77%30.12 "Hg10 mi
8:00 pm57 °FClear.10 mph72%30.12 "Hg10 mi
7:30 pm59 °FClear.10 mph68%30.09 "Hg10 mi
7:00 pm59 °FClear.12 mph68%30.09 "Hg10 mi
6:30 pm61 °FClear.9 mph68%30.09 "Hg10 mi
6:00 pm63 °FSunny.9 mph64%30.09 "Hg10 mi
5:30 pm63 °FSunny.13 mph68%30.09 "Hg10 mi
5:00 pm64 °FSunny.13 mph64%30.09 "Hg10 mi
4:30 pm66 °FSunny.16 mph60%30.09 "Hg10 mi
4:00 pm66 °FPassing clouds.15 mph64%30.09 "HgN/A
3:30 pm68 °FPassing clouds.13 mph60%30.09 "HgN/A
3:00 pm68 °FPassing clouds.14 mph60%30.09 "HgN/A
2:30 pm68 °FPassing clouds.15 mph60%30.12 "HgN/A
2:00 pm66 °FScattered clouds.16 mph64%30.12 "HgN/A
1:00 pm66 °FPassing clouds.16 mph64%30.12 "HgN/A
12:30 pm66 °FPassing clouds.17 mph64%30.12 "HgN/A
12:00 pm66 °FPassing clouds.17 mph68%30.12 "HgN/A
11:00 am64 °FSunny.15 mph73%30.15 "Hg10 mi
10:30 am64 °FSunny.14 mph73%30.12 "Hg10 mi
10:00 am63 °FSunny.10 mph77%30.15 "Hg10 mi
9:30 am61 °FSunny.12 mph77%30.15 "Hg10 mi
9:00 am59 °FSunny.12 mph82%30.12 "Hg10 mi
8:30 am57 °FSunny.13 mph88%30.12 "Hg10 mi
8:00 am55 °FSunny.10 mph88%30.12 "Hg10 mi
7:30 am55 °FSunny.7 mph88%30.12 "Hg10 mi
7:00 am55 °FSunny.7 mph88%30.12 "Hg10 mi
Weather by CustomWeather, © 2021

See weather overview